Weather in Rudyanskoe

Russia / Sverdlovsk Oblast     56°59′00″N   61°56′34″E
temp.,
°C
wind,
m/s
gust,
m/s
humid.,
%
clouds,
%
prec.,
mm/h
press.,
hPa
HPBL,
m
27 july, tue
tue2723:00+13w397225 0.0 1015247
02:00+10w398967 0.0 1015161
05:00+12wsw3107653 0.0 1013288
08:00+16wsw510625 0.0 1012455
11:00+21w71044100 0.0 10092041
14:00+19w7106137 0.4 10091286
17:00+20wnw5952100 0.5 10081927
20:00+17nnw594946 0.1 1009924
28 july, wed
wed2823:00+10nw37765 0.1 1011123
02:00+7wnw38855 0.0 1011158
05:00+6w39925 0.0 1011184
08:00+12wnw48636 0.0 1010736
11:00+15wnw6944100 0.0 10092007
14:00+15wnw7951100 0.2 10091769
17:00+14nw575977 0.2 10101150
20:00+13wnw375381 0.0 1010567
29 july, thu
thu2923:00+11wnw276485 0.0 1011268
02:00+6w38846 0.0 1011146
05:00+5w3785100 0.0 1011138
08:00+11w496396 0.0 1011537
11:00+17w474613 0.0 10101387
14:00+19wsw4104686 0.0 10091886
17:00+21wsw51042100 0.0 10072033
20:00+18sw3756100 0.0 1007158
30 july, fri
fri3023:00+14sw31067100 0.0 1006172
02:00+14sw31168100 0.0 1005219
05:00+15sw41157100 0.0 1003331
08:00+15ssw51369100 0.0 1002745
11:00+15sw51083100 0.1 1001592
14:00+21wnw476642 0.1 10011123
17:00+22wnw476272 0.5 10011292
20:00+19w368457 0.9 1002177
31 july, sat
sat3123:00+16w2596100 2.1 1004102
02:00+14wnw22987 0.0 100533
05:00+14nw229813 0.0 100638
08:00+17nw239069 0.0 1007293
11:00+22w246344 0.0 10081211
14:00+26w344458 0.0 10071761
17:00+25wnw2452100 0.0 1007528
20:00+21wsw246224 0.0 100890